Regional Weather Roundup
Issued by NWS Newport/Morehead, NC

Current Version | Previous Version | Graphics & Text | Print | Product List | Glossary On
Versions: 1 2 3 4 5 6 7 8 9 10 11 12 13 14 15 16 17 18 19 20 21 22 23 24 25 26 27 28 29 30 31 32 33 34 35 36 37 38 39 40 41 42 43 44 45 46 47 48 49 50
000 ASUS42 KMHX 271412 RWRMHX WEATHER ROUNDUP FOR EASTERN NORTH CAROLINA NATIONAL WEATHER SERVICE NEWPORT/MOREHEAD CITY NC 1000 AM EDT FRI MAR 27 2015 NOTE: "FAIR" INDICATES FEW OR NO CLOUDS BELOW 12,000 FEET WITH NO SIGNIFICANT WEATHER AND/OR OBSTRUCTIONS TO VISIBILITY NCZ015>017-031-032-045>047-102-103-271500- NORTH COAST CITY SKY/WX TMP DP RH WIND PRES REMARKS EDENTON CLOUDY 46 44 90 N12G20 29.74R ELIZABETH CITY LGT RAIN 47 45 93 N15 29.74S FOG KITTY HAWK CLOUDY 44 43 98 N13G21 29.70S FOG MANTEO CLOUDY 46 44 95 N22G29 29.71F $$ NCZ045>047-081-094-103-104-271500- CENTRAL COAST CITY SKY/WX TMP DP RH WIND PRES REMARKS FRISCO CLOUDY 50 48 93 NE12G18 29.70R SWANQUARTER N/A 50 N/A N/A NE13G22 29.68R $$ NCZ095-097-098-100-101-271500- SOUTHERN COAST CITY SKY/WX TMP DP RH WIND PRES REMARKS BEAUFORT CLOUDY 61 61 100 SW8 29.67S CEDAR ISLAND N/A 63 N/A N/A S5 29.71S JACKSONVILLE PTSUNNY 66 62 87 SW8 29.65F PINEY ISLAND CLOUDY N/A N/A N/A S6 29.65F WILMINGTON PTSUNNY 66 62 87 SW13 29.67F $$ NCZ011>013-027>030-043-044-078>080-089-090>093-098-271500- COASTAL PLAIN CITY SKY/WX TMP DP RH WIND PRES REMARKS AHOSKIE RAIN 46 44 91 N12 29.74F CLINTON CLOUDY 63 59 87 N7 29.66S ELIZABETHTOWN MOSUNNY 67 60 79 SW10 29.67R GOLDSBORO CLOUDY 53 53 98 N10 29.68R GREENVILLE CLOUDY 52 48 87 N12 29.74R HAVELOCK CLOUDY 65 61 87 SW7 29.67S KENANSVILLE PTSUNNY 64 59 84 SW6 29.66F KINSTON CLOUDY 54 50 87 N12G18 29.69R NEW BERN CLOUDY 64 61 90 SW5 29.66F RICHLANDS PTSUNNY 66 61 82 SW9 29.66F ROCKY MOUNT CLOUDY 50 42 74 N16 29.73R WASHINGTON CLOUDY 52 50 93 NE15 29.70R WHITEVILLE MOSUNNY 69 61 75 SW5 29.67R $$ AMZ130-135-150-152-154-156-158-170-250-252-270-ANZ085-086-088-633-658-670-271500- MARINE OBSERVATIONS STATION/POSITION TIME TEMP WIND PRES WAVE SWELL AIR SEA DIR/SP/G HT/PER HT/PER (UTC) (F) (DEG/KT/KT) (MB) (FT/S) (FT/S) CHESAPEAKE LIGHT 1300 44 10/ 20/ 23 1007.5 64 E VA BEACH 1350 48 51 10/ 25/ 29 1004.4 9/ 9 5/ 9 DUCK 1300 43 41 10/ 18/ 20 1005.3 2 E DUCK 1311 42 N/A 4/ 9 2/11 10 NE DUCK NOT AVBL OREGON INLET 1300 59 340/ 14/ 20 1005.6 HATTERAS CG 1300 60 60 280/ 10/ 13 1004.9 CAPE LOOKOUT 1400 60 190/ 6/ 7 1004.4 BEAUFORT LAB 1300 61 58 220/ 4/ 7 1003.9 27 SE WRIGHTSVLE 1300 61 64 250/ 12/ 16 1006.9 5 SE WRIGHTSVLE 1300 59 58 210/ 8/ 10 1005.1 225 S CAPE HAT 1350 71 69 200/ 19/ 23 1008.9 9/ 8 2/13 41 SE CHARLESTON 1350 67 70 250/ 17/ 21 1006.7 6/ 6 3/ 8 $$

USA.gov is the U.S. government's official web portal to all federal, state and local government web resources and services.